Location: *
(45.6233°N, 5.2306°E)
Time: 21:32:10
(UTC+00:00)

Daily predictions for brighter satellites

Satellite Brightness Start Highest point End
(mag) Time Altitude Azimuth Time Altitude Azimuth Time Altitude Azimuth
SL-4 R/B 2.0 17:23:47 10° WNW 17:27:42 59° NNE 17:31:18 10° ESE
Unknown 3.7 17:23:57 10° SW 17:28:00 65° SE 17:32:04 10° ENE
Unknown 3.8 17:23:59 10° SW 17:28:03 59° SE 17:32:08 10° ENE
Unknown 3.8 17:25:36 10° SW 17:29:41 60° SE 17:33:46 10° ENE
Cosmos 2263 Rocket 3.5 17:25:48 10° SW 17:31:11 43° WNW 17:36:35 10° NNE
Unknown 3.7 17:27:17 10° SW 17:31:23 62° SE 17:35:29 10° ENE
Okean-O 3.0 17:28:24 10° S 17:32:49 71° WSW 17:37:16 10° NNW
Unknown 3.7 17:28:56 10° SW 17:33:01 64° SE 17:37:08 10° ENE
CSL-04 Rocket 4.0 17:27:50 10° SE 17:33:08 48° ENE 17:38:25 10° N
Unknown 3.7 17:30:33 10° SW 17:34:39 66° SE 17:38:46 10° ENE
CZ-2D R/B 4.5 17:31:59 10° ESE 17:34:59 22° ENE 17:38:00 10° NNE
Cosmos 1726 Rocket 4.0 17:31:43 10° SSE 17:35:48 38° E 17:39:52 10° NNE
Cosmos 1271 Rocket 3.0 17:34:11 10° N 17:38:01 46° ENE 17:41:51 10° SSE
Unknown 3.6 17:33:55 10° SW 17:38:02 70° SE 17:42:10 10° ENE
Cosmos 724 4.4 17:33:07 10° SSW 17:39:15 80° ESE 17:45:20 10° NE
Starlink (trailer) 3.6 17:35:33 10° SW 17:39:40 72° SE 17:43:48 10° ENE
BREEZE M DEB (TANK) 2.0 17:38:26 10° WNW 17:40:34 52° NNE 17:44:18 11° E
Unknown 3.6 17:37:13 10° SW 17:41:21 74° SE 17:45:29 10° ENE
Unknown 3.6 17:38:37 10° WSW 17:42:40 84° NNW 17:46:45 10° ENE
Unknown 3.6 17:38:50 10° SW 17:42:58 75° SE 17:47:05 10° ENE
Cosmos 1953 2.3 17:39:00 10° S 17:43:01 66° E 17:47:04 10° NNE
Cosmos 2058 Rocket 3.8 17:39:15 10° SSE 17:43:02 30° E 17:46:50 10° NNE
Cosmos 1821 Rocket 3.9 17:37:22 10° N 17:43:28 70° E 17:49:35 10° SSE
Lacrosse 5 3.4 17:39:46 10° NW 17:43:49 23° N 17:47:50 10° ENE
Shenzhou-11 Module 3.4 17:42:28 10° SW 17:44:43 22° SSE 17:46:27 13° ESE
Cosmos 1833 Rocket 4.1 17:42:37 10° N 17:46:37 19° NE 17:49:44 13° E
Cosmos 1758 3.9 17:43:59 10° SSW 17:47:55 62° W 17:51:52 10° N
Unknown 3.6 17:45:28 10° SW 17:49:36 83° SSE 17:53:28 12° ENE
Unknown 3.6 17:45:32 10° SW 17:49:41 85° SSE 17:53:32 12° ENE
Nadezhda 3 Rocket 4.0 17:43:32 10° S 17:49:47 80° E 17:56:08 10° N
Cosmos 1703 4.2 17:46:53 10° NNE 17:50:18 27° ENE 17:53:41 10° SE
Unknown 3.6 17:46:20 10° SW 17:50:28 85° SE 17:54:18 12° ENE
COBE Rocket 4.1 17:47:02 10° N 17:52:16 86° WNW 17:57:23 10° SSW
Cosmos 2228 3.0 17:48:34 10° S 17:52:54 62° E 17:57:13 10° NNE
Unknown 3.6 17:50:27 10° WSW 17:54:36 90° SSE 17:58:16 13° ENE
Unknown 3.6 17:50:28 10° WSW 17:54:36 90° SW 17:58:16 13° ENE
Cosmos 1626 3.4 17:51:20 10° NNW 17:54:53 44° W 17:58:26 10° SSW
Unknown 3.6 17:52:13 10° WSW 17:56:22 86° NNW 17:59:59 13° ENE
COSMOS 2406 3.7 17:52:15 10° NNW 17:57:42 41° NE 18:02:53 11° SE
Envisat 3.4 17:53:55 10° S 17:58:58 68° WSW 18:04:03 10° NNW
Unknown 3.6 17:55:32 10° WSW 17:59:41 82° NNW 18:03:10 14° ENE
Cosmos 1934 Rocket 4.0 17:53:53 10° N 18:00:08 61° ENE 18:06:25 10° SSE
Unknown 3.6 17:56:10 10° WSW 18:00:19 83° NNW 18:03:45 15° ENE
Unknown 3.6 17:57:08 10° WSW 18:01:17 83° NNW 18:04:40 15° ENE
Cosmos 2082 Rocket 3.7 17:57:58 10° N 18:01:55 19° NE 18:04:04 15° ENE
Cosmos 1726 2.5 17:59:18 10° SSE 18:02:43 38° E 18:06:09 10° NNE
COSMO-SKYMED 1 2.7 17:58:22 10° N 18:02:44 80° WNW 18:07:04 10° SSW
FengYun 1-2 T 4.4 17:58:35 10° S 18:04:14 79° WSW 18:09:54 10° NNW
Unknown 3.7 18:00:20 10° WSW 18:04:29 81° NNW 18:07:45 16° ENE
Cosmos 1939 Rocket 3.2 18:01:16 10° SE 18:04:59 41° ENE 18:08:47 10° N
Cosmos 921 Rocket 3.2 18:00:48 10° S 18:05:11 53° ESE 18:09:34 10° NNE
Cosmos 292 Rocket 4.3 18:01:24 10° SSE 18:05:39 34° ESE 18:09:55 10° NE
Unknown 3.7 18:03:46 10° WSW 18:07:54 75° NNW 18:11:02 17° NE
Cosmos 482 Debris 4.3 18:03:09 10° WNW 18:08:21 64° NNE 18:10:07 26° E
Unknown 3.7 18:05:26 10° WSW 18:09:34 74° NNW 18:12:38 18° NE
Unknown 3.8 18:07:08 10° WSW 18:11:16 72° NNW 18:14:16 18° NE
CSL-04 Debris 4.3 18:06:29 10° SSE 18:11:55 84° WSW 18:17:26 10° NNW
Unknown 3.8 18:08:48 10° WSW 18:12:56 70° NNW 18:15:52 19° NE
Cosmos 1356 3.6 18:09:40 10° S 18:12:57 44° E 18:16:15 10° NNE
Lacrosse 5 rocket 1.1 18:11:27 10° NW 18:15:14 89° NE 18:17:43 22° SE
Unknown 3.9 18:12:06 10° WSW 18:16:13 67° NNW 18:19:01 20° NE
Cosmos 1953 Rocket 3.8 18:12:12 10° NNW 18:16:35 73° W 18:20:54 10° S
Unknown 3.9 18:13:51 10° WSW 18:17:58 65° NNW 18:20:41 20° NE
USA 116 3.2 18:15:36 10° N 18:18:42 77° WNW 18:21:55 10° SSW
Unknown 3.9 18:15:28 10° WSW 18:19:35 64° NNW 18:22:15 21° NE
Cosmos 2084 3.5 18:15:31 10° SW 18:20:05 90° E 18:24:06 13° NE
Unknown 3.9 18:17:04 10° WSW 18:21:11 64° NNW 18:23:46 22° NE
Unknown 4.0 18:17:44 10° WSW 18:21:51 62° NNW 18:24:25 22° NE
CZ-4 R/B 2.5 18:17:58 10° S 18:21:57 47° W 18:26:02 10° NNW
Unknown 3.9 18:20:16 10° WSW 18:24:23 64° NNW 18:26:49 23° NE
Meteor 1-16 Rocket 4.1 18:20:48 10° S 18:26:27 89° WNW 18:31:56 10° N
Unknown 4.0 18:23:38 10° WSW 18:27:44 61° NNW 18:30:02 25° NE
Cosmos 1242 Rocket 2.5 18:24:16 10° N 18:27:59 88° WSW 18:31:40 10° S
Unknown 4.0 18:25:17 10° WSW 18:29:23 60° NNW 18:31:36 25° NE
Cosmos 1328 3.7 18:25:56 10° N 18:29:58 88° E 18:33:55 10° S
Cosmos 1844 Rocket 3.1 18:24:24 10° SW 18:30:01 63° WNW 18:35:39 10° NNE
Unknown 4.1 18:27:13 10° WSW 18:31:18 55° NNW 18:33:28 25° NE
Unknown 3.4 18:29:08 10° NW 18:31:23 38° N 18:31:23 38° N
ADEOS Rocket 4.1 18:25:01 10° NNE 18:31:45 31° E 18:38:09 10° SSE
Unknown 4.1 18:28:36 10° WSW 18:32:41 57° NNW 18:34:48 26° NE
Cosmos 1908 3.1 18:29:08 10° S 18:32:59 62° E 18:36:51 10° NNE
Unknown 4.1 18:30:19 10° WSW 18:34:24 56° NNW 18:36:26 27° NE
Unknown 4.2 18:33:37 10° WSW 18:37:41 54° NNW 18:39:35 29° NE
Unknown 4.2 18:35:21 10° WSW 18:39:25 53° NNW 18:41:14 29° NE
SPOT 3 Rocket 4.1 18:39:52 35° E 18:40:34 36° ENE 18:45:18 10° N
Meteor 2-10 3.9 18:35:46 10° S 18:40:54 86° W 18:45:58 10° N
Unknown 4.2 18:37:01 10° WSW 18:41:04 52° NNW 18:42:48 30° NE
Ariane Rocket 2.9 18:36:23 10° SSE 18:41:29 89° E 18:46:37 10° NNW
Unknown 4.3 18:38:43 10° W 18:42:46 51° NNW 18:44:26 31° NE
Cosmos 2278 Rocket 2.4 18:38:07 10° S 18:43:27 44° ESE 18:46:34 23° NE
Cosmos 489 Rocket 4.3 18:39:12 10° SSW 18:45:24 79° ESE 18:51:37 10° NNE
Unknown 4.3 18:42:04 10° W 18:46:06 49° NNW 18:47:37 32° NNE
Cosmos 1844 4.2 18:40:44 10° SW 18:46:22 60° WNW 18:52:06 10° NNE
Unknown 4.4 18:43:51 10° W 18:47:52 47° NNW 18:49:19 32° NNE
USA 238 DEB 4.3 18:42:16 10° S 18:47:26 31° ESE 18:47:26 31° ESE
Unknown 4.5 18:44:06 10° W 18:48:05 45° NNW 18:49:34 31° NNE
USA 238 4.3 18:42:24 10° S 18:47:27 31° SE 18:47:27 31° SE
Unknown 4.5 18:45:42 10° W 18:49:41 45° NNW 18:51:06 32° NNE
Unknown 4.4 18:48:43 10° W 18:52:43 46° NNW 18:53:57 35° NNE
Unknown 4.5 18:52:05 10° W 18:56:04 44° NNW 18:57:09 36° NNE
USA 234 3.7 18:57:29 36° SE 18:57:46 36° SE 19:03:42 10° SSW
CZ-4C R/B 4.4 18:52:43 10° NW 18:59:20 36° WSW 19:06:36 10° S
H-2A R/B 2.4 18:59:39 45° ENE 18:59:39 45° ENE 19:04:40 10° N
SJ-11-01 4.1 18:59:52 54° SE 19:00:50 74° ENE 19:05:32 10° N
Cosmos 1777 Rocket 3.9 18:56:27 10° NNW 19:01:43 89° ENE 19:03:37 41° SSE
ATLAS 5 CENTAUR R/B 3.5 18:59:08 10° W 19:02:56 28° NW 19:07:08 10° NNE
SL-4 R/B 3.2 19:03:49 10° WNW 19:07:06 29° SW 19:07:19 29° SW
CZ-2C R/B 4.0 19:10:55 37° NE 19:10:55 37° NE 19:15:23 10° N
Cosmos 839 Rocket 4.4 19:05:32 10° NW 19:11:40 64° WSW 19:16:04 23° SSE
Gbstr 26 Del rocket 4.3 19:09:15 10° WNW 19:15:36 65° NNE 19:17:24 50° ENE
Cosmos 1076 Rocket 4.4 19:11:54 10° N 19:14:49 40° N 19:14:49 40° N
Cosmos 1461 4.2 19:13:32 10° NNW 19:15:58 31° N 19:15:58 31° N
Lacrosse 5 2.6 19:22:59 10° NW 19:27:11 42° N 19:27:11 42° N
BREEZE-M DEB (TANK) 3.1 19:20:18 10° WSW 19:27:40 62° SW 19:27:40 62° SW
Cosmos 1833 Rocket 2.5 19:25:39 10° NNW 19:31:18 86° WSW 19:31:28 84° SSW
Cosmos 1459 Rocket 3.8 19:25:56 10° N 19:32:07 76° E 19:32:12 76° E
Resurs 01 Rocket 3.8 19:35:40 17° N 19:35:40 17° N 19:36:43 10° N
ARGOS 3.2 19:34:28 67° N 19:34:28 67° N 19:39:13 10° NNW
Cosmos 1727 Rocket 4.2 19:28:01 10° SSW 19:34:10 66° W 19:40:19 10° N
Cosmos 1802 Rocket 4.0 19:33:00 10° N 19:38:56 69° NE 19:38:56 69° NE
Cosmos 2082 Rocket 2.4 19:41:06 10° NNW 19:45:57 65° NNW 19:45:57 65° NNW
Cosmos 2173 Rocket 4.0 19:45:21 10° N 19:51:39 78° W 19:51:41 78° W
Lacrosse 5 rocket 4.1 19:52:02 10° W 19:53:24 13° WSW 19:53:24 13° WSW
SJ 16-02 4.1 19:54:23 10° N 19:54:38 11° N 19:54:38 11° N
Cosmos 2100 Rocket 4.4 20:01:28 10° NNW 20:07:30 55° W 20:07:49 55° WSW
ADEOS Rocket 3.9 20:09:58 10° N 20:17:37 62° WNW 20:24:52 10° SSW
Cosmos 2278 Rocket 3.7 20:22:36 10° WSW 20:27:40 33° NW 20:28:35 31° NNW
H-2A R/B 4.1 20:40:18 25° WNW 20:40:18 25° WNW 20:43:38 10° NW
